Change the Weather History Date:

Sunday, January 9, 2000

  Actual Average Record
Temperature  
Mean Temperature 39 °F -  
Max Temperature 46 °F 42 °F 60 °F (1975)
Min Temperature 32 °F 20 °F -8 °F (1970)
Degree Days  
Heating Degree Days 26    
Moisture  
Dew Point 33 °F    
Average Humidity 86    
Maximum Humidity 100    
Minimum Humidity 60    
Precipitation  
Precipitation 0.35 in - - ()
Sea Level Pressure  
Sea Level Pressure 30.00 in    
Wind  
Wind Speed 2 mph (SE)    
Max Wind Speed 5 mph    
Max Gust Speed -    
Visibility 6 miles    
Events Fog , Rain    
Averages and records for this station are not official NWS values.
T = Trace of Precipitation, MM = Missing Value Source: NWS Daily Summary

Daily Weather History Graph

Daily Weather History Graph

Search for Another Location

Airport or City:

Trip Planner

Search our weather history database for the weather conditions in past years. The results will help you decide how hot, cold, wet, or windy it might be!

Date:

Astronomy

Jan. 09, 2000 Rise Set
Actual Time 7:37 AM EST 5:27 PM EST
Civil Twilight 7:09 AM EST 5:56 PM EST
Nautical Twilight 6:37 AM EST 6:28 PM EST
Astronomical Twilight 6:06 AM EST 6:59 PM EST
Moon 9:33 AM EST (1/9) 8:17 PM EST (1/9)
Length of Visible Light 10h 46m
Length of Day
9h 49m
Waxing Crescent, 8% of the Moon is Illuminated
Jan 9
Waxing Crescent
Jan 14
First Quarter
Jan 20
Full
Jan 28
Last Quarter
Feb 5
New

Hourly Weather History & Observations

Time (EST) Temp. Windchill Dew Point Humidity Pressure Visibility Wind Dir Wind Speed Gust Speed Precip Events Conditions
12:16 AM 33.8 °F 30.8 °F 21.2 °F 60% 30.13 in 10.0 mi SE 3.5 mph - N/A   Mostly Cloudy
12:36 AM 35.6 °F 32.8 °F 23.0 °F 60% 30.12 in 10.0 mi SE 3.5 mph - N/A   Scattered Clouds
12:56 AM 33.8 °F 29.6 °F 23.0 °F 65% 30.11 in 10.0 mi SE 4.6 mph - N/A   Mostly Cloudy
1:16 AM 33.8 °F 29.6 °F 23.0 °F 65% 30.10 in 10.0 mi SE 4.6 mph - N/A   Mostly Cloudy
1:36 AM 32.0 °F 28.7 °F 21.2 °F 64% 30.10 in 10.0 mi SE 3.5 mph - N/A   Mostly Cloudy
1:56 AM 32.0 °F 27.5 °F 21.2 °F 64% 30.09 in 10.0 mi SE 4.6 mph - N/A   Mostly Cloudy
2:16 AM 32.0 °F 28.7 °F 21.2 °F 64% 30.09 in 10.0 mi SSE 3.5 mph - N/A   Mostly Cloudy
2:36 AM 33.8 °F - 21.2 °F 60% 30.09 in 10.0 mi Calm Calm - N/A   Mostly Cloudy
2:56 AM 32.0 °F - 21.2 °F 64% 30.09 in 10.0 mi Calm Calm - N/A   Scattered Clouds
3:16 AM 32.0 °F - 21.2 °F 64% 30.09 in 10.0 mi Calm Calm - N/A   Scattered Clouds
3:36 AM 33.8 °F - 21.2 °F 60% 30.08 in 10.0 mi Calm Calm - N/A   Mostly Cloudy
3:56 AM 33.8 °F - 21.2 °F 60% 30.07 in 10.0 mi Calm Calm - N/A   Mostly Cloudy
4:16 AM 33.8 °F - 23.0 °F 65% 30.05 in 10.0 mi Calm Calm - N/A   Overcast
4:36 AM 33.8 °F - 23.0 °F 65% 30.05 in 10.0 mi Calm Calm - N/A   Overcast
4:56 AM 33.8 °F - 23.0 °F 65% 30.04 in 10.0 mi Calm Calm - N/A   Overcast
5:16 AM 33.8 °F - 23.0 °F 65% 30.04 in 10.0 mi Calm Calm - N/A   Overcast
5:36 AM 35.6 °F - 23.0 °F 60% 30.04 in 10.0 mi Calm Calm - N/A   Overcast
5:56 AM 35.6 °F - 23.0 °F 60% 30.04 in 10.0 mi Calm Calm - N/A   Overcast
6:16 AM 35.6 °F - 24.8 °F 65% 30.04 in 10.0 mi Calm Calm - N/A   Mostly Cloudy
6:36 AM 33.8 °F - 24.8 °F 70% 30.04 in 10.0 mi Calm Calm - N/A   Mostly Cloudy
6:56 AM 35.6 °F - 26.6 °F 70% 30.05 in 10.0 mi Calm Calm - N/A   Overcast
7:16 AM 35.6 °F - 26.6 °F 70% 30.03 in 10.0 mi Calm Calm - N/A   Overcast
7:36 AM 35.6 °F - 26.6 °F 70% 30.03 in 10.0 mi Calm Calm - N/A   Overcast
7:56 AM 35.6 °F - 26.6 °F 70% 30.04 in 10.0 mi Calm Calm - N/A   Overcast
8:16 AM 35.6 °F - 26.6 °F 70% 30.04 in 7.0 mi Calm Calm - 0.00 in Rain Rain
8:36 AM 32.0 °F - 30.2 °F 93% 30.04 in 4.0 mi Calm Calm - 0.02 in Rain Light Rain
8:56 AM 32.0 °F - 30.2 °F 93% 30.03 in 2.5 mi Calm Calm - 0.00 in Rain Light Rain
9:16 AM 32.0 °F 28.7 °F 32.0 °F 100% 30.02 in 10.0 mi SE 3.5 mph - 0.01 in   Drizzle
9:36 AM 32.0 °F - 32.0 °F 100% 30.02 in 10.0 mi Calm Calm - 0.01 in   Light Drizzle
9:56 AM 32.0 °F - 32.0 °F 100% 30.04 in 1.8 mi Calm Calm - 0.00 in Rain Rain
10:16 AM 32.0 °F - 32.0 °F 100% 30.02 in 2.0 mi Calm Calm - 0.06 in Rain Light Rain
10:36 AM 33.8 °F 30.8 °F 33.8 °F 100% 30.02 in 1.5 mi SE 3.5 mph - 0.08 in Rain Rain
10:56 AM 35.6 °F 32.8 °F 35.6 °F 100% 30.01 in 1.5 mi East 3.5 mph - 0.01 in Rain Light Rain
11:16 AM 35.6 °F 32.8 °F 35.6 °F 100% 29.99 in 0.8 mi East 3.5 mph - 0.03 in Rain Light Rain
11:36 AM 35.6 °F - 35.6 °F 100% 29.98 in 0.2 mi Calm Calm - 0.04 in Rain Light Rain
11:56 AM 35.6 °F 31.7 °F 35.6 °F 100% 30.00 in 0.5 mi NW 4.6 mph - 0.00 in Rain Rain
12:16 PM 37.4 °F - 37.4 °F 100% 29.98 in 0.8 mi Calm Calm - 0.08 in Rain Heavy Rain
12:36 PM 37.4 °F - 37.4 °F 100% 29.98 in 1.5 mi Calm Calm - 0.14 in Rain Rain
12:56 PM 39.2 °F - 39.2 °F 100% 29.96 in 2.0 mi Calm Calm - 0.00 in Rain Rain
1:16 PM 41.0 °F - 41.0 °F 100% 29.95 in 0.8 mi Calm Calm - 0.03 in Rain Light Rain
1:36 PM 41.0 °F - 41.0 °F 100% 29.94 in 1.8 mi Calm Calm - 0.05 in Rain Rain
1:56 PM 41.0 °F - 41.0 °F 100% 29.93 in 0.2 mi Calm Calm - 0.00 in Rain Light Rain
2:16 PM 42.8 °F - 42.8 °F 100% 29.92 in 5.0 mi Calm Calm - N/A   Mostly Cloudy
2:36 PM 44.6 °F - 44.6 °F 100% 29.91 in 10.0 mi Calm Calm - N/A   Mostly Cloudy
2:56 PM 44.6 °F - 44.6 °F 100% 29.91 in 7.0 mi Calm Calm - 0.00 in   Drizzle
3:16 PM 44.6 °F - 44.6 °F 100% 29.91 in 10.0 mi Calm Calm - 0.00 in   Drizzle
3:36 PM 44.6 °F - 44.6 °F 100% 29.91 in 1.0 mi Calm Calm - 0.01 in   Light Drizzle
3:56 PM 46.4 °F - 46.4 °F 100% 29.91 in 5.0 mi Calm Calm - 0.00 in Rain Light Rain
4:36 PM 46.4 °F - 46.4 °F 100% 29.92 in 7.0 mi Calm Calm - N/A   Overcast
4:56 PM 44.6 °F 42.2 °F 44.6 °F 100% 29.91 in 7.0 mi East 4.6 mph - N/A   Overcast
5:16 PM 44.6 °F - 44.6 °F 100% 29.92 in 5.0 mi Calm Calm - N/A   Overcast
5:36 PM 42.8 °F - 42.8 °F 100% 29.92 in 1.0 mi Calm Calm - N/A   Overcast
5:56 PM 42.8 °F - 42.8 °F 100% 29.91 in 0.5 mi Calm Calm - N/A Fog Fog
6:16 PM 41.0 °F 38.0 °F 41.0 °F 100% 29.92 in 0.2 mi SSE 4.6 mph - N/A Fog Fog
6:36 PM 41.0 °F 39.0 °F 41.0 °F 100% 29.91 in 0.2 mi SE 3.5 mph - N/A Fog Fog
6:56 PM 39.2 °F 35.9 °F 39.2 °F 100% 29.92 in 0.2 mi SSE 4.6 mph - N/A Fog Fog
7:16 PM 37.4 °F 34.9 °F 37.4 °F 100% 29.92 in 0.2 mi SE 3.5 mph - N/A Fog Fog
7:36 PM 37.4 °F 34.9 °F 37.4 °F 100% 29.93 in 0.2 mi SE 3.5 mph - N/A Fog Fog
7:56 PM 37.4 °F 34.9 °F 37.4 °F 100% 29.93 in 0.2 mi SE 3.5 mph - N/A Fog Fog
8:16 PM 37.4 °F 33.8 °F 37.4 °F 100% 29.93 in 0.2 mi SE 4.6 mph - N/A Fog Fog
8:36 PM 37.4 °F - 37.4 °F 100% 29.93 in 0.2 mi Calm Calm - N/A Fog Fog
8:56 PM 37.4 °F - 37.4 °F 100% 29.92 in 0.2 mi Calm Calm - N/A Fog Fog
9:16 PM 37.4 °F 34.9 °F 37.4 °F 100% 29.92 in 0.2 mi ESE 3.5 mph - N/A Fog Fog
9:36 PM 37.4 °F 33.8 °F 37.4 °F 100% 29.92 in 0.2 mi SSE 4.6 mph - N/A Fog Fog
9:56 PM 37.4 °F - 37.4 °F 100% 29.92 in 0.2 mi Calm Calm - N/A Fog Fog
10:16 PM 37.4 °F 34.9 °F 37.4 °F 100% 29.91 in 0.2 mi East 3.5 mph - N/A Fog Fog
10:36 PM 37.4 °F - 37.4 °F 100% 29.91 in 0.2 mi Calm Calm - N/A Fog Fog
10:56 PM 37.4 °F 34.9 °F 37.4 °F 100% 29.90 in 0.2 mi ESE 3.5 mph - N/A Fog Fog
11:16 PM 37.4 °F - 37.4 °F 100% 29.89 in 0.2 mi Calm Calm - N/A Fog Fog
11:36 PM 37.4 °F - 37.4 °F 100% 29.89 in 0.2 mi Calm Calm - N/A Fog Fog
11:56 PM 37.4 °F - 37.4 °F 100% 29.88 in 0.2 mi Calm Calm - N/A Fog Fog